Location: Marse
(42.1502°N, 110.9866°W)
Time: 01:25:52
(UTC+00:00)

BEESAT - Pass Details

Date: 02 July 2022
Orbit: 700 x 706 km, 98.6° (Epoch: 16 August)

Event Time Altitude Azimuth Distance (km) Brightness Sun altitude
Rises 04:29:22 0° 5° (N) 3,104 ? -12.9°
Reaches altitude 10° 04:31:44 10° 358° (N) 2,182 ? -13.2°
Maximum altitude 04:36:09 39° 291° (WNW) 1,059 ? -13.7°
Drops below altitude 10° 04:40:34 10° 223° (SW) 2,171 ? -14.2°
Sets 04:42:55 0° 216° (SW) 3,086 ? -14.5°
